Torna al catalogo

ATLAS 5 CENTAUR DEB

LostHEO
NORAD 57589·DEBRIS·🇺🇸 United States

Lanciato Oct 17, 2018 da Cape Canaveral Space Force Station

Loading…

Prossimi Passaggi (prossime 24 ore)

TLE

ObsoletoSource: Space-Track

Epoca: Aug 1, 2026, 23:28 UTC

1 57589U 18079HQ  26213.97845066 -.00000103  00000-0  00000-0 0  9993
2 57589  13.3654  24.4153 4639966 340.4340   6.3104  1.84241136 22231

Traccia ATLAS 5 CENTAUR DEB in tempo reale con AllMySat

Download on the App Store